TIME,DELAY(SENSOR),PRES,OXYGEN,RAWTEMP,T(OPTODE),TCPHASE,FLUOR,BETA(BETA700),BETA(BETA412),BETA(BETA440),CDOM,C(CSC),ED(ED412.20),ED(ED444.00),ED(ED489.60),ED(ED554.30),LU(LU412.10),LU(LU443.90),LU(LU489.70),LU(LU554.70),COMP,TILTX,TILTY,CHECK
1339384549,5810,898.8800048828125000,31.6276893615722660,564.1325073242188000,4.3577518463134770,56.8630104064941400,55,99,102,78,83,15543,0,0,0,0,2147124836,2147774016,2147571867,2147574811,1041,2,13,20417
1339388145,5810,981.4799804687500000,38.4760894775390600,571.7974243164062000,4.1196942329406740,55.8642501831054700,55,97,101,78,84,15541,0,0,0,0,2147122742,2147778084,2147566427,2147572352,2402,2,13,10196
1339391745,5812,991.6799926757812000,40.2360191345214840,573.9398193359375000,4.0530619621276855,55.6226997375488300,55,98,101,78,84,15538,0,0,0,0,2147124297,2147775460,2147572790,2147570276,98,2,13,23474
1339395345,5810,993.1500244140625000,40.6892089843750000,574.7927856445312000,4.0265250205993650,55.5641899108886700,55,97,102,78,84,15538,0,0,0,0,2147124297,2147774829,2147574025,2147570166,123,2,13,47681
1339398945,5808,992.3900146484375000,41.2281990051269500,576.0139770507812000,3.9885199069976807,55.4992485046386700,55,98,101,77,84,15538,0,0,0,0,2147121636,2147776658,2147574272,2147573869,990,2,13,31557
1339402545,5809,998.2000122070312000,42.0958595275878900,577.0797119140625000,3.9553411006927490,55.3823699951171900,56,101,101,78,84,15539,0,0,0,0,2147121956,2147773284,2147571712,2147573577,304,2,13,28549
1339406145,5808,1003.3300170898438000,41.7693786621093750,576.4539794921875000,3.9748229980468750,55.4212303161621100,56,97,101,78,82,15539,0,0,0,0,2147123849,2147772480,2147573778,2147566445,751,2,13,26975
1339409745,5808,1008.5999755859375000,41.2468795776367200,576.0859985351562000,3.9862771034240723,55.4993400573730500,55,98,101,79,83,15536,0,0,0,0,2147120914,2147772278,2147567232,2147571885,103,2,13,19452
1339413345,5810,1003.6400146484375000,40.8777084350585940,576.2341918945312000,3.9816648960113525,55.5483207702636700,55,100,103,78,84,15537,0,0,0,0,2147120466,2147774317,2147569033,2147573046,124,2,13,34778
1339416945,5808,1007.3900146484375000,41.3551292419433600,577.0300292968750000,3.9568879604339600,55.4874610900878900,55,98,102,79,84,15537,0,0,0,0,2147123108,2147777618,2147572461,2147572443,133,2,13,47728
1339420545,5808,1001.7399902343750000,40.7462806701660160,576.8831787109375000,3.9614601135253906,55.5812606811523440,55,95,101,78,85,15538,0,0,0,0,2147124809,2147775378,2147573668,2147570002,546,2,13,19777
1339424145,5810,997.3900146484375000,41.4170684814453100,577.4144897460938000,3.9449179172515870,55.4878005981445300,54,99,101,78,84,15538,0,0,0,0,2147122880,2147772818,2147567158,2147574994,561,3,13,21540
1339427745,5809,999.5499877929688000,41.9964714050293000,577.4432983398438000,3.9440209865570070,55.3998184204101560,55,104,102,77,84,15537,0,0,0,0,2147124041,2147775835,2147573942,2147569664,334,2,13,56363
1339431345,5808,1005.0599975585938000,41.8868217468261700,577.2221069335938000,3.9509088993072510,55.4119682312011700,55,98,101,78,84,15536,0,0,0,0,2147123392,2147777005,2147566381,2147569728,3481,2,13,35853
1339434945,5810,1003.6900024414062000,42.0085105895996100,577.8151855468750000,3.9324378967285156,55.4011611938476560,55,97,102,78,83,15534,0,0,0,0,2147122944,2147771126,2147574628,2147573001,3562,2,13,30103
1339438545,5810,1000.4799804687500000,41.9886894226074200,577.9945068359375000,3.9268529415130615,55.4091606140136700,56,98,100,79,83,15537,0,0,0,0,2147120557,2147775222,2147574162,2147569554,93,3,13,10683
1339442145,5808,1005.5100097656250000,42.1028594970703100,578.0548095703125000,3.9249761104583740,55.3911209106445300,55,100,101,77,84,15533,0,0,0,0,2147123922,2147775725,2147573906,2147571081,352,2,13,60634
1339445745,5810,1007.3900146484375000,42.0350914001464840,578.5496826171875000,3.9095630645751953,55.4110603332519500,54,98,103,78,84,15534,0,0,0,0,2147120420,2147773147,2147572470,2147568859,7,2,13,64818
1339449345,5810,1019.5300292968750000,41.8262901306152340,576.7395019531250000,3.9659349918365480,55.4151687622070300,55,98,102,78,83,15531,0,0,0,0,2147121974,2147773202,2147568484,2147571675,3055,2,13,60682
1339452945,5809,1013.6699829101562000,41.6280899047851560,576.5562744140625000,3.9716379642486572,55.4453697204589840,56,98,101,78,84,15533,0,0,0,0,2147120713,2147776027,2147569645,2147570249,108,3,13,34166
1339456545,5808,1014.6500244140625000,40.8789901733398440,576.2380981445312000,3.9815430641174316,55.5483207702636700,56,98,100,79,83,15532,0,0,0,0,2147123136,2147777398,2147572982,2147574893,111,2,13,44513
1339460145,5806,1011.2100219726562000,41.1568984985351560,576.9503784179688000,3.9593679904937744,55.5162391662597660,55,97,102,78,85,15534,0,0,0,0,2147121792,2147772077,2147574153,2147571245,3487,3,13,1062
1339463745,5809,1011.3699951171875000,41.2038307189941400,577.6328735351562000,3.9381179809570312,55.5205993652343750,54,97,101,79,83,15484,0,0,0,0,2147125312,2147777234,2147572059,2147572790,3444,2,13,57811
1339467345,5808,1013.8599853515625000,41.7851600646972660,577.1505737304688000,3.9531350135803223,55.4325790405273440,55,97,100,78,84,15505,0,0,0,0,2147124288,2147777417,2147569993,2147570249,26,2,13,9157
1339470945,5811,1021.3499755859375000,41.0945014953613300,576.0106201171875000,3.9886229038238525,55.5160102844238300,54,98,101,78,83,15507,0,0,0,0,2147123629,2147774089,2147574198,2147572745,34,2,13,52484
1339474545,5812,1018.2299804687500000,39.8162803649902340,575.6436157226562000,4.0000481605529785,55.7045288085937500,55,99,100,79,84,15504,0,0,0,0,2147122532,2147774107,2147572406,2147573668,3410,2,13,2054
1339478145,5810,1010.8400268554688000,40.9633712768554700,577.0045776367188000,3.9576780796051025,55.5489692687988300,55,97,101,78,85,15502,0,0,0,0,2147121545,2147772388,2147569572,2147572571,135,2,13,49193
1339481745,5810,1017.9500122070312000,41.8114013671875000,577.2092895507812000,3.9513070583343506,55.4228706359863300,56,98,101,78,85,15506,0,0,0,0,2147121170,2147773833,2147572160,2147569709,37,2,13,50705
1339485345,5808,1016.7899780273438000,41.2821693420410160,577.2061767578125000,3.9514009952545166,55.5068588256835940,54,97,100,79,84,15501,0,0,0,0,2147122176,2147775579,2147570212,2147569801,226,2,13,18360
1339488945,5812,1015.1400146484375000,41.1408615112304700,577.6790161132812000,3.9366800785064697,55.5293083190918000,54,97,101,78,83,15500,0,0,0,0,2147121499,2147773357,2147571163,2147574171,3519,2,13,61754
1339492545,5810,1018.0800170898438000,41.3986511230468750,577.4390258789062000,3.9441549777984620,55.4911003112793000,55,99,101,78,85,15531,0,0,0,0,2147123035,2147775204,2147572708,2147569627,140,2,13,36101
1339496145,5812,1017.7700195312500000,41.3368415832519500,577.2687988281250000,3.9494531154632570,55.5003700256347660,55,100,102,79,84,15529,0,0,0,0,2147123593,2147772196,2147575341,2147572132,3522,2,13,2511
1339499745,5812,1019.7800292968750000,41.9557800292968750,577.2479858398438000,3.9500999450683594,55.4078788757324200,55,99,102,78,83,15530,0,0,0,0,2147121289,2147777389,2147571684,2147572196,3345,2,13,55517
1339503345,5810,1013.4099731445312000,41.4896507263183600,577.5637817382812000,3.9402658939361572,55.4799003601074200,55,100,101,78,84,15530,0,0,0,0,2147122358,2147773129,2147573741,2147573513,39,2,13,56046
1339506945,5810,1015.1799926757812000,41.6252784729003900,578.1834716796875000,3.9209671020507812,55.4663009643554700,55,98,102,78,84,15528,0,0,0,0,2147123035,2147769371,2147568594,2147570505,318,2,13,28542
1339510545,5807,1016.6799926757812000,41.9366989135742200,577.4197998046875000,3.9447519779205322,55.4082107543945300,54,98,100,78,84,15529,0,0,0,0,2147122395,2147771410,2147570788,2147573385,204,2,13,49798
1339514145,5807,1015.8699951171875000,41.3041610717773440,577.9703979492188000,3.9276070594787598,55.5107917785644500,55,97,101,78,84,15525,0,0,0,0,2147123035,2147771026,2147576402,2147571776,178,3,13,58387
1339517745,5809,1012.4000244140625000,41.4708213806152340,577.7357177734375000,3.9349160194396973,55.4834785461425800,55,98,103,78,84,15527,0,0,0,0,2147121078,2147769764,2147575680,2147574153,492,2,13,28503
1339521345,5808,1008.7800292968750000,42.0758285522460940,579.0839233398438000,3.8929200172424316,55.4050216674804700,56,99,101,78,84,15527,0,0,0,0,2147121334,2147773248,2147574966,2147572059,96,2,13,59783
1339524945,5809,1011.4600219726562000,41.7914505004882800,578.2730102539062000,3.9181799888610840,55.4394989013671900,55,100,102,78,84,15506,0,0,0,0,2147120146,2147772333,2147572598,2147575469,3300,2,13,5511
1339528545,5809,1018.7700195312500000,41.8676795959472660,577.2996826171875000,3.9484920501708984,55.4207916259765600,56,97,102,79,83,15524,0,0,0,0,2147120950,2147777197,2147572772,2147572635,185,3,13,26756
1339529157,5806,1017.5399780273438000,41.5998306274414060,577.2609252929688000,3.9496989250183105,55.4603004455566400,54,98,102,79,83,15525,0,0,0,0,2147124708,2147771977,2147570953,2147568384,163,2,13,49740
